Location: Passau
(48.5830°N, 13.4830°E)
Time: 21:04:00
(UTC+02:00)

S-56A Canister/Altair - Pass Details

Date: 26 May 2024
Orbit: 637 x 2489 km, 38.9° (Epoch: 16 June)

Event Time Altitude Azimuth Distance (km) Brightness Sun altitude
Rises 04:51:40 0° 209° (SSW) 6,146 11.5 -3.6°
Reaches altitude 10° 04:56:37 10° 199° (SSW) 5,068 11.2 -3.0°
Maximum altitude 05:07:40 28° 149° (SSE) 3,422 10.8 -1.5°
Drops below altitude 10° 05:16:40 10° 97° (E) 4,103 12.1 -0.3°
Sets 05:20:08 0° 86° (E) 4,825 12.9 0.2°
